Terug naar catalogus

TOMORROW-S2

ActiefWeerSSO
NORAD 60485·PAYLOAD·🇺🇸 United States

Gelanceerd Aug 16, 2024 vanaf Vandenberg Space Force Base

Loading…

Volgende Passages (komende 24 uur)

TLE

VersSource: Space-Track

Epoch: Sep 14, 2026, 16:51 UTC

1 60485U 24149T   26257.70213374  .00006546  00000-0  20199-3 0  9997
2 60485  97.3762 338.5140 0001725 349.5910  10.5296 15.33911282115802

Volg TOMORROW-S2 in realtime met AllMySat

Download on the App Store